Weather in Novorgev

Russia / Pskov Oblast     57°01′46″N   29°19′56″E
temp.,
°C
wind,
m/s
gust,
m/s
humid.,
%
clouds,
%
prec.,
mm/h
press.,
hPa
HPBL,
m
15 may, sat
sat1500:00+10e279667 0.0 1007124
03:00+10e2598100 1.0 1006118
06:00+10e2599100 1.0 1005142
09:00+13ese259899 1.9 1005323
12:00+15ssw4589100 1.1 1005748
15:00+14wsw249357 1.6 1005214
18:00+17wsw247738 0.6 1004656
21:00+13w229641 3.6 100541
16 may, sun
sun1600:00+11w2298100 0.1 100646
03:00+9wsw249811 0.1 100783
06:00+9wsw24979 0.0 1009109
09:00+13w24765 0.0 1010352
12:00+19wsw235345 0.0 10101300
15:00+19ssw246185 0.7 10101246
18:00+17ssw258776 1.7 1010575
21:00+13sse22955 3.0 101018
17 may, mon
mon1700:00+12se26965 0.0 1010114
03:00+11se289786 0.0 1010158
06:00+11se3129597 0.0 1009282
09:00+17sse4117996 0.0 1009640
12:00+20sse5859100 0.4 10081253
15:00+17ssw4884100 1.8 1008846
18:00+14sw2697100 2.3 1008268
21:00+13nne1299100 4.3 100548
18 may, tue
tue1800:00+12sse1198100 1.5 100517
03:00+12sw2399100 1.5 100587
06:00+12w149783 0.0 1005144
09:00+14w2288100 0.1 1005376
12:00+16w1269100 0.1 1005943
15:00+18wsw225999 0.1 10041356
18:00+18wnw1359100 0.0 10041254
21:00+13sw24877 0.1 100486
19 may, wed
wed1900:00+11sw2597100 0.0 100594
03:00+9wsw399841 0.0 1005240
06:00+9wsw389798 0.0 1007330
09:00+12w4672100 0.0 1008630
12:00+16w4653100 0.0 10071228
15:00+17w5747100 0.0 10081696
18:00+15wnw4757100 0.0 10091606
21:00+10wsw2280100 0.0 101115